Wind_Speed
14 15 15 11 12 11 10 10 10 12 13 13 12 19 11 5 6 7 12 13 11 9 5 5 6 8 9 10 11 12 12 12 13 14 15 16 17 17 18 18 18 18 17 18 18 18 19 19 18 18 18 19 19 20 20 20 19 19 19 19 19 19 19 19 19 19 18 18 18 17 17 18 19 19 20 20 20 20 21 21 21 21 21 21 22
12 13 13 12 12 12 11 11 11 11 11 11 7 16 9 2 3 4 7 9 10 7 5 7 8 10 10 11 11 12 12 12 13 14 15 16 16 17 17 17 17 17 17 17 18 18 19 19 19 19 19 19 20 21 21 21 21 20 20 20 20 20 20 20 21 20 19 19 19 18 18 19 19 20 20 20 21 22 22 22 22 22 22 22 23
11 12 13 13 13 13 13 12 11 9 9 8 8 13 11 7 6 7 9 12 10 7 6 8 10 11 12 11 12 12 12 12 12 13 14 15 16 16 16 16 16 16 16 17 17 18 18 19 19 19 19 19 20 21 21 22 22 22 21 21 21 21 21 21 22 22 20 20 20 20 19 19 20 20 21 21 22 23 23 23 23 24 24 23 24
8 10 12 14 13 13 14 14 12 10 9 10 12 14 14 12 10 11 14 15 11 8 8 10 12 14 14 13 12 12 12 11 11 12 13 14 14 14 15 15 15 15 16 16 17 17 18 19 19 19 19 19 20 21 21 22 22 22 22 22 22 22 22 22 22 23 22 21 21 21 21 20 20 21 21 22 22 23 24 25 25 26 26 25 25
9 8 8 11 12 13 15 14 13 12 11 12 14 15 14 12 12 14 15 13 10 8 9 12 14 15 15 14 14 13 12 11 10 10 12 13 14 14 14 15 15 15 16 16 17 18 18 19 19 19 19 20 20 20 20 21 21 22 22 22 22 22 22 23 23 23 23 23 22 21 21 21 21 21 22 22 23 23 24 25 26 27 27 26 26
11 8 7 7 9 12 14 15 14 13 14 14 14 14 14 14 15 16 14 11 9 9 11 13 14 16 16 16 16 14 12 11 10 9 10 11 13 14 15 15 15 16 16 16 17 18 19 19 19 19 19 20 20 20 20 20 20 21 21 22 22 22 23 23 23 23 24 24 24 23 22 22 22 22 23 23 23 24 24 25 26 27 27 26 26
14 9 6 7 9 11 13 14 15 15 16 16 15 15 15 15 16 16 13 10 8 10 13 15 16 17 17 17 17 15 13 12 10 9 9 10 11 13 15 15 16 16 16 17 17 18 19 19 20 19 19 20 20 20 20 20 20 20 21 22 22 22 23 23 23 23 24 24 24 24 24 23 23 23 23 23 23 23 24 24 25 26 26 26 26
15 10 7 9 12 14 15 15 15 16 17 17 17 16 16 15 15 15 13 10 9 11 14 16 17 17 17 18 17 15 14 12 9 9 10 10 10 11 13 15 16 16 17 17 18 18 18 19 19 19 19 19 19 19 20 20 20 20 20 21 21 22 22 22 22 23 23 24 24 24 23 24 23 22 22 22 23 23 23 24 25 25 26 26 26
17 12 9 11 13 17 18 17 16 16 17 18 19 19 18 16 15 15 15 12 11 12 14 16 16 16 16 17 16 15 13 11 9 10 11 12 11 11 12 14 16 17 18 18 18 18 18 18 18 18 18 18 18 18 18 18 19 19 19 20 20 20 21 21 21 21 22 22 23 23 23 23 23 22 21 20 21 22 23 23 24 24 25 25 25
20 15 12 13 14 17 20 19 17 16 17 19 21 21 20 18 17 17 17 15 13 14 15 16 16 15 14 15 15 14 13 11 11 12 13 14 14 13 13 14 16 18 18 19 19 18 18 17 18 18 18 17 17 16 16 16 16 17 17 18 18 19 19 19 20 20 21 21 21 22 22 22 22 22 22 20 20 22 22 23 24 24 24 24 24
24 18 16 17 17 19 21 21 20 20 20 21 21 22 22 20 19 19 18 17 15 16 16 16 15 14 14 14 14 14 12 12 13 14 15 16 16 15 14 14 16 18 19 18 18 18 18 17 17 17 17 17 17 16 15 14 15 16 16 17 17 18 18 18 19 19 20 20 20 21 21 21 21 22 22 22 23 23 24 24 24 23 23 23 23
27 22 20 21 22 22 23 25 26 25 24 19 16 17 21 21 21 21 19 17 17 17 16 15 14 13 13 14 14 14 13 13 14 14 15 15 16 15 16 16 17 18 19 18 18 17 17 17 17 17 17 17 16 15 14 14 14 15 16 16 17 17 17 17 18 18 19 19 19 20 20 21 21 21 22 23 23 23 24 25 24 24 23 23 23
29 26 25 27 27 25 26 29 28 24 20 16 12 14 19 20 20 19 19 17 16 17 16 15 15 15 14 14 14 14 14 13 12 13 14 14 15 17 18 18 18 19 20 19 18 17 17 17 17 17 17 17 16 15 14 13 14 14 15 15 16 16 16 16 17 17 18 18 19 19 20 20 20 21 21 22 23 23 24 24 25 24 24 23 22
30 29 28 28 28 26 27 29 27 24 24 21 16 18 23 22 19 19 19 18 17 17 17 15 16 16 17 17 17 17 16 13 11 12 14 15 17 18 19 19 19 20 20 20 19 17 16 16 17 17 16 16 16 15 14 13 13 14 14 14 14 14 14 15 15 16 16 16 17 18 18 19 19 20 20 21 22 23 23 24 24 24 24 23 22
29 29 29 28 27 26 26 27 25 24 24 23 18 17 19 22 24 24 22 20 18 18 16 16 17 18 19 20 20 19 17 15 14 14 14 15 16 18 19 19 20 20 20 20 19 17 16 16 16 16 16 16 15 15 14 14 14 14 14 14 14 14 13 13 13 14 14 14 15 15 16 17 18 18 19 20 21 22 22 23 23 23 23 22 22
30 31 33 31 29 28 28 28 25 21 18 17 17 13 10 16 23 24 21 17 16 17 17 15 15 16 17 17 17 16 15 16 19 18 15 14 15 17 19 19 20 20 19 18 17 16 15 15 15 15 15 14 14 14 14 14 14 14 14 14 14 14 13 13 13 12 12 12 12 13 14 15 16 17 18 19 20 20 21 21 21 21 21 20 20
32 33 33 33 32 30 30 30 27 22 18 17 16 12 10 12 15 18 19 15 11 13 13 12 12 12 13 13 13 14 16 18 19 16 14 14 15 17 19 19 19 19 19 18 15 14 13 13 13 13 13 14 14 14 14 14 15 15 15 15 14 14 14 13 13 13 12 12 12 12 12 13 14 15 16 17 18 20 20 20 20 20 20 19 18
34 35 33 32 32 28 27 29 26 19 17 17 16 15 15 14 13 15 18 17 12 9 10 10 11 12 12 14 15 16 17 18 18 16 14 14 15 16 18 18 18 17 17 17 14 12 12 12 12 12 13 14 14 15 15 15 16 16 16 16 15 15 14 13 13 13 13 13 12 12 12 12 13 13 14 15 16 18 19 19 19 19 19 18 18
33 33 29 26 28 27 26 29 28 22 18 16 16 16 16 15 14 12 12 13 13 10 10 10 10 11 12 13 14 14 15 16 16 15 14 14 14 16 18 19 18 17 17 15 13 12 12 12 11 12 12 14 15 16 17 17 17 17 17 17 16 15 14 14 13 13 13 14 13 13 13 12 12 13 13 14 15 16 17 18 18 18 18 18 17
26 29 25 23 24 27 30 32 34 31 25 20 18 19 18 17 15 10 5 5 7 7 8 9 10 11 13 13 13 12 13 13 13 12 12 13 14 16 18 18 18 17 17 16 13 12 12 12 11 12 13 14 14 15 16 17 17 17 17 17 16 16 15 14 14 13 14 14 14 15 15 14 14 14 13 13 14 14 15 16 17 18 18 18 18
22 26 27 26 23 23 26 29 30 29 24 20 20 21 21 20 19 16 12 9 6 7 8 9 11 13 13 13 12 12 12 12 12 13 14 15 15 16 17 17 16 16 16 15 13 12 12 12 13 13 13 13 14 14 15 15 16 16 16 16 16 16 16 16 15 15 15 15 15 16 16 16 16 16 15 15 15 15 15 16 16 17 18 18 18
23 26 27 25 23 22 23 24 25 25 23 22 22 22 22 20 20 20 17 13 10 9 10 11 12 13 14 14 14 14 14 14 14 15 15 15 15 16 15 15 15 15 15 14 13 12 13 15 16 15 13 12 13 14 14 14 14 14 15 15 16 17 17 17 18 17 17 17 16 16 16 17 17 17 17 17 16 16 16 16 17 17 18 18 18
23 23 23 23 23 23 24 24 23 22 22 23 24 23 22 21 20 19 17 15 14 13 12 12 13 14 14 14 14 14 15 15 15 15 16 16 16 16 15 14 14 14 14 14 15 15 16 17 17 16 16 15 15 15 16 16 16 16 17 17 17 17 17 18 19 19 19 19 19 18 18 18 17 17 17 17 17 17 17 18 18 18 18 19 19
21 20 21 22 22 21 21 21 20 21 21 22 23 22 21 21 21 20 19 18 16 15 15 14 14 14 14 15 14 14 14 14 14 16 17 16 15 15 15 15 15 14 16 17 18 18 17 17 17 16 17 19 19 19 19 19 19 18 18 19 19 18 18 18 20 20 20 20 20 20 20 20 20 19 19 18 18 18 18 19 19 19 19 20 21
22 20 20 21 21 20 19 17 17 18 20 21 21 20 20 20 21 22 22 21 19 18 18 17 16 16 16 16 16 15 15 14 14 14 15 15 14 15 16 16 16 17 18 19 20 19 18 18 18 17 16 18 18 19 19 20 21 20 19 20 20 20 20 19 20 21 21 21 21 22 22 22 22 22 22 21 21 21 20 20 20 20 21 21 22
23 22 22 22 21 20 20 19 19 19 20 21 22 23 24 24 25 26 26 25 24 22 21 20 19 19 18 18 17 17 16 15 14 15 17 18 17 16 16 16 17 18 19 21 21 21 20 19 19 19 18 18 18 18 19 20 20 20 20 20 20 21 22 22 21 20 21 22 22 23 23 23 24 25 25 25 25 25 24 23 22 22 22 23 24
24 24 24 24 24 24 23 22 21 22 22 22 24 25 26 27 28 30 30 30 29 27 24 22 21 21 21 20 19 18 17 17 16 17 18 19 18 16 15 16 17 19 20 22 23 22 20 18 19 20 21 20 21 23 22 22 21 21 21 21 19 20 22 23 21 21 20 21 22 23 23 23 24 25 26 27 28 27 26 24 22 21 22 24 25
26 26 25 25 25 26 26 25 24 24 23 22 24 26 28 29 30 31 33 33 31 29 26 24 23 24 23 22 21 21 21 21 20 19 19 19 19 17 15 16 18 20 20 21 22 23 21 20 20 22 23 23 24 25 26 26 25 23 23 22 20 21 23 22 21 21 22 22 23 23 23 23 24 24 25 26 26 26 25 23 21 21 22 24 26
28 27 26 25 24 24 25 25 26 25 24 24 25 27 29 30 32 35 36 33 31 30 28 27 27 27 26 25 24 25 26 26 25 23 21 21 21 21 20 21 21 21 22 22 22 23 23 23 24 25 25 26 27 27 28 28 27 27 27 27 25 25 25 24 24 24 24 25 25 26 26 26 27 26 26 26 26 25 25 24 25 26 27 27 28
31 30 29 27 26 25 25 25 26 26 26 27 28 29 30 30 31 35 36 33 31 31 31 31 31 31 30 30 30 30 31 30 29 27 26 26 25 26 26 25 24 23 24 24 24 24 25 25 26 27 28 29 29 30 30 30 30 30 29 29 29 29 29 29 29 29 29 29 29 30 30 31 31 32 32 32 31 30 30 31 32 33 33 32 31
35 34 33 32 31 31 30 30 30 30 31 32 33 32 33 31 29 29 32 32 31 32 33 34 35 35 35 34 34 34 35 34 33 32 31 29 28 27 27 27 26 26 25 26 26 27 27 28 29 30 30 30 30 30 31 31 32 32 31 30 32 33 34 33 33 33 33 33 34 35 35 36 36 36 37 37 37 36 35 36 36 37 38 37 37
39 37 36 34 34 34 35 35 36 36 36 36 36 35 36 36 34 32 33 35 35 36 37 39 40 40 39 38 37 37 37 37 36 35 35 33 31 30 29 30 30 29 28 28 29 29 30 30 31 31 31 31 31 31 33 33 33 33 33 34 34 35 35 35 34 35 35 36 37 38 38 38 38 38 38 39 39 39 40 40 40 41 41 42 42
41 40 39 39 39 38 38 38 39 39 39 39 39 39 39 39 39 39 38 38 39 39 40 42 43 43 42 42 41 41 40 39 38 37 36 35 34 34 33 33 33 32 32 31 31 32 32 33 33 33 33 33 33 33 35 35 35 34 33 34 34 34 35 35 35 35 36 37 38 39 39 40 40 41 42 42 42 43 44 45 45 45 46 46 46
42 43 43 43 42 41 40 39 39 39 40 41 41 41 40 40 40 40 39 39 40 41 42 43 44 45 45 44 44 43 42 41 40 38 36 36 37 37 37 37 36 35 34 34 34 34 34 34 34 35 35 35 35 36 36 37 37 36 35 35 35 35 35 36 37 37 37 38 39 40 41 42 43 44 44 45 46 46 46 47 47 48 48 48 48
44 45 45 44 42 40 38 37 37 36 36 37 38 39 38 38 38 38 39 40 42 43 43 43 43 44 43 43 43 43 43 43 42 40 40 41 42 42 42 41 40 39 38 37 36 36 36 36 36 37 38 38 38 39 39 39 40 40 39 39 38 37 37 38 38 39 39 40 40 41 42 43 44 45 46 46 47 48 48 48 48 48 49 49 49
47 48 47 44 41 39 39 39 38 37 36 35 36 37 37 36 36 37 39 40 40 41 41 41 41 41 42 43 44 45 45 45 44 44 44 44 43 43 43 42 41 41 40 39 39 39 39 39 39 40 40 41 41 41 41 42 42 42 42 42 41 41 40 40 40 40 40 41 41 42 43 44 45 46 46 47 47 48 48 49 49 49 50 50 51
48 48 48 46 44 43 43 44 42 41 40 39 37 37 38 38 38 36 35 34 34 35 37 38 38 38 39 40 41 41 41 40 41 42 42 42 42 42 42 42 42 42 42 42 42 42 42 42 42 42 42 43 43 43 43 43 43 43 43 43 43 43 43 42 42 41 41 41 41 41 42 43 44 45 46 47 47 48 49 49 50 50 51 51 51
45 45 45 45 44 43 43 43 43 43 43 42 41 41 39 38 38 37 35 34 34 35 35 34 34 35 36 37 37 37 37 37 38 39 40 41 41 42 42 43 44 44 44 45 44 44 44 44 44 44 44 44 45 45 45 45 45 45 45 45 45 45 45 44 44 43 43 42 42 42 42 43 43 44 45 46 47 47 48 49 49 50 50 51 51
45 45 45 46 47 47 47 48 48 49 49 48 48 48 47 44 42 43 44 45 44 42 36 32 32 34 35 35 35 35 35 37 39 41 42 43 44 45 46 47 47 46 46 46 46 46 45 45 44 44 44 45 46 47 47 47 47 47 47 47 47 47 46 46 45 45 45 44 44 43 43 43 43 43 44 44 45 46 46 47 47 48 48 49 50
49 50 51 51 52 52 52 52 52 52 52 52 52 52 52 52 51 52 53 54 53 50 45 39 38 38 37 35 33 33 34 35 36 37 39 42 45 48 48 49 48 48 47 46 45 46 45 45 44 44 45 46 47 47 47 47 48 48 48 48 47 47 46 46 46 45 45 45 45 44 44 43 43 43 43 43 44 44 44 45 45 46 47 47 48
53 53 54 53 53 53 53 53 52 51 50 50 50 49 49 51 53 54 54 55 55 53 51 48 47 48 46 43 40 38 37 38 38 38 39 41 44 47 47 46 46 46 46 46 46 46 46 46 46 47 49 49 49 48 48 48 48 48 48 48 47 46 46 45 45 45 45 45 45 44 44 44 43 43 42 41 42 42 43 43 44 44 44 44 45
50 51 52 52 52 53 54 52 50 48 47 48 49 49 50 52 54 53 53 54 54 54 53 52 52 54 54 53 51 48 46 45 45 45 45 46 47 48 49 49 48 49 49 49 49 49 49 50 51 53 54 53 50 49 49 49 49 49 48 48 47 46 45 45 45 45 45 45 44 44 44 44 43 42 41 41 41 41 41 42 42 41 42 42 43
45 46 46 46 47 49 51 52 51 51 51 51 51 52 52 53 54 55 55 55 55 55 56 56 55 56 58 59 59 58 58 56 54 53 53 53 53 54 55 56 56 57 57 56 56 56 56 56 56 57 56 53 50 49 49 49 49 49 49 49 48 47 46 45 45 45 45 45 44 44 44 43 43 42 41 41 41 41 41 41 41 41 42 42 42
48 48 48 47 47 48 49 50 51 51 52 52 53 53 52 52 52 53 54 55 55 55 55 55 56 56 57 59 60 61 62 62 62 60 59 59 60 61 61 61 60 60 59 59 59 58 58 57 56 55 53 51 50 49 49 49 49 49 49 48 48 47 47 46 46 45 45 44 44 44 44 43 43 42 42 41 41 41 41 41 41 42 42 42 43
53 53 53 53 53 53 53 53 53 53 53 53 54 53 54 54 54 54 54 54 55 55 54 54 55 55 55 56 57 59 59 60 61 60 59 59 60 61 61 61 60 59 58 57 57 56 56 55 54 53 52 50 50 50 50 50 50 49 49 48 48 47 47 46 46 45 45 44 44 44 44 43 43 42 41 41 41 41 41 41 42 42 42 43 43
56 57 57 57 57 57 57 56 56 57 57 57 57 57 57 57 58 58 58 58 58 58 58 57 57 57 57 57 57 57 57 58 58 58 58 57 57 57 58 59 59 59 58 57 56 55 54 53 52 51 50 50 50 50 50 50 49 49 49 49 48 48 47 47 46 45 44 44 44 43 43 42 42 41 41 41 41 40 40 41 42 42 42 42 42
61 62 62 62 62 62 62 61 61 61 61 61 61 62 62 63 63 63 63 63 63 64 63 63 63 63 63 63 62 61 60 59 59 58 58 57 57 57 57 58 58 58 58 58 57 56 55 53 52 51 50 49 49 49 49 48 48 49 49 49 48 47 46 46 45 45 44 44 43 42 42 41 40 40 40 40 40 40 40 40 41 41 41 41 40
63 63 64 64 64 64 64 64 64 65 65 65 65 65 66 66 67 67 67 67 67 67 67 67 67 67 66 66 65 64 62 61 61 60 59 59 58 58 58 58 58 58 58 58 57 56 55 54 53 52 50 49 48 48 47 47 48 48 48 47 46 45 45 44 43 43 42 42 41 41 40 40 39 39 39 39 39 39 39 40 40 40 39 38 37
60 60 61 61 61 61 61 62 62 63 64 64 64 64 64 65 65 66 67 68 67 67 66 66 66 66 66 65 65 64 64 63 62 61 60 59 59 59 58 58 57 57 56 56 55 55 54 54 53 51 50 49 47 46 46 46 46 46 45 45 44 44 43 43 42 41 40 39 39 38 38 38 38 38 38 38 38 38 38 38 38 37 36 36 36
58 59 59 59 60 60 60 60 60 60 61 61 61 61 61 62 62 63 64 65 65 65 65 64 64 64 64 64 64 63 63 62 62 61 60 59 58 58 57 56 55 54 53 53 53 53 52 52 51 50 49 47 46 45 45 44 43 43 43 43 43 42 42 41 41 40 39 38 37 37 36 36 36 36 36 36 36 36 36 36 36 36 35 35 35
58 58 59 59 59 60 60 60 60 60 60 60 60 60 61 61 62 62 63 63 64 64 64 63 63 62 61 61 61 61 60 60 60 59 59 58 57 56 55 53 52 51 50 51 51 51 50 49 49 48 47 46 44 44 43 42 41 41 41 41 42 41 41 40 40 39 39 38 36 36 36 36 36 35 35 35 35 35 36 36 35 35 34 34 34
Wind_Direction
254 253 259 297 318 294 273 267 277 283 287 305 260 210 195 175 181 201 202 211 240 248 258 276 272 271 270 272 271 270 269 268 269 268 267 266 265 266 265 263 261 260 259 258 259 260 261 262 260 257 254 253 252 253 254 253 252 251 250 252 254 256 258 260 260 259 259 258 256 253 252 253 254 257 256 254 253 252 253 255 256 255 254 254 255
250 252 260 280 296 291 280 271 276 284 294 312 243 203 204 181 186 204 200 222 246 251 268 272 270 274 275 275 273 272 272 274 275 272 271 268 265 264 263 263 262 261 260 259 259 259 260 261 260 258 255 253 252 253 254 255 255 254 253 254 255 257 260 261 263 263 263 263 262 259 254 253 253 254 255 254 254 253 254 256 259 261 260 258 258
259 260 263 273 284 289 287 283 282 286 288 287 239 228 254 268 249 255 261 264 261 256 258 255 260 265 266 269 268 270 272 275 277 276 272 268 265 263 262 264 265 265 266 265 264 262 262 262 262 261 259 257 255 254 255 256 256 256 256 256 256 256 258 259 262 264 263 261 262 263 261 256 253 253 254 253 253 254 256 257 259 260 261 260 259
278 274 268 270 277 282 285 286 285 286 279 265 252 253 266 270 261 256 258 259 253 249 247 247 253 257 260 262 262 264 266 269 274 274 271 268 267 266 266 267 267 268 268 268 268 266 264 263 262 262 261 259 258 257 256 256 257 257 258 258 257 256 256 257 258 261 263 261 257 259 260 257 254 252 253 253 252 252 254 257 258 258 259 259 259
289 293 286 277 275 277 279 282 285 285 279 269 262 261 263 262 256 251 249 245 241 241 242 248 254 256 258 259 258 259 262 266 268 269 272 273 274 273 272 272 271 270 269 268 268 266 264 263 262 261 260 260 259 259 258 258 259 260 260 259 258 258 256 257 257 258 261 263 261 259 258 257 257 256 256 255 254 253 252 253 255 256 258 259 260
286 296 305 293 280 272 271 273 277 280 278 271 263 260 259 256 253 252 249 243 241 242 245 254 259 260 261 259 257 259 264 267 268 272 278 280 280 277 274 273 272 271 269 267 266 264 263 261 260 259 259 259 260 260 261 261 261 262 262 262 262 261 260 259 258 258 259 262 264 265 263 263 263 262 261 259 258 257 256 254 254 255 257 260 261
283 287 301 299 287 277 270 267 266 267 268 265 260 255 251 250 253 257 255 250 244 241 247 256 260 262 263 260 257 258 263 265 268 279 285 285 283 280 276 273 272 270 268 267 265 263 262 260 259 257 257 257 258 259 260 261 262 262 263 264 265 265 264 263 262 261 261 262 264 265 265 266 265 263 263 263 262 261 261 259 258 258 259 259 260
279 280 290 291 287 282 274 265 261 261 263 265 265 260 249 243 246 253 258 259 252 246 250 254 256 260 262 262 259 254 253 258 266 279 285 287 286 285 281 276 273 270 267 265 264 262 261 259 258 256 255 255 255 256 257 259 260 261 263 263 264 265 265 266 265 264 263 263 264 265 265 266 266 265 265 266 265 264 263 262 261 261 260 259 259
276 278 283 282 281 278 272 268 266 264 266 268 268 265 258 249 240 244 252 255 251 248 249 250 252 257 259 260 256 245 242 252 266 276 280 283 283 285 286 281 276 271 267 264 261 260 260 259 258 255 252 251 251 253 255 257 258 260 261 262 263 264 265 265 266 266 265 265 265 265 265 266 267 267 266 265 264 262 261 260 260 260 260 260 259
276 274 273 271 273 273 270 268 264 261 260 260 261 260 257 250 239 236 242 246 245 247 249 251 253 255 254 251 244 236 238 256 275 279 279 280 279 278 279 281 277 271 266 262 259 258 258 259 259 257 253 251 249 250 252 256 258 259 260 262 264 265 266 267 268 268 268 268 268 267 267 268 268 268 266 263 261 261 261 260 260 259 259 260 260
274 270 268 266 266 269 270 266 261 258 254 252 254 252 246 244 242 237 236 239 244 248 251 253 254 253 248 243 239 239 249 271 284 283 280 280 278 274 273 276 277 271 266 262 259 257 257 258 260 259 258 255 252 251 253 257 260 262 262 263 264 266 267 269 271 273 273 273 272 271 270 269 268 267 265 262 261 261 262 263 263 262 261 260 259
270 269 270 269 269 269 265 260 259 259 252 245 247 244 238 238 240 239 237 238 244 249 253 254 253 251 248 244 246 253 266 280 286 282 277 277 277 276 278 279 278 275 270 265 262 260 258 257 259 260 260 259 257 256 256 258 261 264 266 266 266 266 267 269 271 274 276 276 276 275 274 272 270 268 267 265 263 262 261 262 263 263 263 260 258
267 268 268 267 268 264 255 253 257 258 253 247 246 241 241 242 237 237 240 239 243 249 253 256 255 257 259 259 261 266 269 273 279 276 267 268 276 280 282 281 278 277 274 271 267 263 260 258 258 259 259 259 257 256 257 258 261 264 267 269 269 269 269 270 272 273 275 276 277 277 276 275 272 270 269 267 265 264 262 262 262 263 263 262 259
265 264 263 263 264 261 259 261 260 251 243 247 251 240 242 248 242 240 243 241 243 249 253 255 258 265 270 274 278 277 271 267 274 276 264 264 274 278 279 277 276 277 278 275 271 267 264 261 260 260 260 259 258 256 256 256 258 261 264 267 269 270 270 271 271 272 273 275 276 276 276 275 274 272 269 268 267 266 265 264 264 264 265 265 263
264 264 265 267 267 264 266 266 259 245 237 244 250 243 246 248 236 232 235 232 236 244 250 252 255 263 270 272 274 276 275 269 273 278 268 262 269 274 276 276 276 278 279 278 274 270 266 263 261 260 260 260 259 258 257 256 256 257 259 261 264 266 268 269 270 271 272 273 274 275 275 274 273 271 269 268 267 267 267 268 268 266 266 266 265
262 264 266 268 267 268 268 259 246 236 229 234 238 239 251 244 230 229 231 232 240 247 250 255 260 267 271 268 265 268 271 269 274 277 263 254 264 272 274 275 278 282 283 281 277 271 266 262 259 257 256 256 256 255 255 253 254 254 256 258 260 263 264 266 268 270 273 274 276 277 277 276 274 272 269 268 266 266 266 268 269 269 268 267 266
258 259 261 261 262 266 263 251 239 234 234 235 234 239 257 255 241 237 236 241 250 249 248 254 263 269 272 267 263 267 270 268 272 270 251 245 259 265 267 271 277 282 285 283 277 271 267 265 264 262 259 256 255 254 253 253 252 252 253 255 257 260 264 267 269 271 273 275 277 279 279 279 278 275 272 269 267 266 266 266 268 268 269 268 266
259 256 253 254 257 260 257 247 238 238 248 248 241 250 265 270 263 248 242 243 242 242 256 262 265 270 271 268 267 271 269 263 265 264 251 246 253 258 263 269 274 280 282 279 274 271 272 272 273 273 272 269 265 260 257 255 254 253 252 252 253 255 258 263 268 271 273 274 275 277 278 279 280 278 276 273 271 269 268 268 268 268 268 267 266
258 245 238 246 252 253 254 249 244 248 259 256 248 252 258 263 268 262 251 248 245 256 275 274 273 277 274 272 273 274 271 267 267 262 249 243 249 259 266 269 271 274 274 270 267 268 272 275 277 278 277 275 272 268 263 258 256 255 255 254 254 254 255 258 263 267 271 272 273 273 273 275 276 278 278 278 276 275 274 272 271 271 271 270 269
253 235 240 259 259 254 254 250 249 255 261 260 256 255 253 255 263 269 269 257 253 265 273 271 272 273 272 275 278 280 281 278 269 254 247 253 261 266 269 271 271 269 266 261 257 260 268 275 279 280 277 271 267 267 265 261 258 256 256 257 257 257 258 258 260 263 266 269 271 271 270 269 268 270 272 274 275 276 276 277 276 276 276 275 275
251 246 259 269 264 260 256 248 249 256 258 258 256 256 257 255 252 256 269 281 280 272 268 266 262 259 261 266 268 271 272 268 260 254 258 265 268 267 268 271 272 268 265 259 253 260 274 282 284 283 278 270 264 261 260 260 259 258 259 260 261 261 261 261 261 261 263 265 267 269 269 269 267 267 268 269 270 271 271 273 274 275 277 278 278
252 255 263 267 266 265 259 254 255 258 259 260 257 256 256 254 250 253 266 279 281 273 266 260 256 255 259 262 263 263 260 258 256 255 255 258 264 269 271 272 271 267 264 258 254 265 279 288 290 285 271 263 262 261 261 261 260 259 260 261 263 264 264 264 264 264 265 265 266 267 269 270 270 270 270 270 271 272 273 273 273 274 274 275 277
258 259 262 265 267 266 263 262 261 260 259 259 258 255 250 248 249 253 262 270 273 272 268 264 262 262 264 267 268 266 265 265 262 257 254 257 264 267 267 268 267 262 259 258 262 269 277 286 292 286 269 262 264 265 263 263 263 263 264 263 263 263 263 263 263 264 265 265 266 266 266 266 268 269 270 271 273 275 276 277 277 277 276 275 274
264 264 264 264 266 269 271 269 265 260 257 255 254 254 250 248 248 250 255 261 266 272 274 273 271 269 269 270 270 268 270 272 272 265 257 255 259 263 265 266 262 256 255 257 261 266 272 279 285 284 275 271 270 267 263 262 262 264 266 265 264 264 263 262 260 260 261 262 264 265 265 266 265 265 265 267 269 271 274 275 277 277 276 275 274
264 266 268 269 271 272 272 273 271 264 256 253 254 256 257 256 256 255 257 259 265 274 278 275 272 272 276 275 271 271 271 273 277 270 258 258 264 268 267 264 259 254 255 257 258 262 270 278 281 279 275 272 271 270 267 265 264 263 262 264 266 266 265 263 260 259 259 260 261 262 263 264 264 264 264 264 266 267 269 271 273 275 275 274 274
266 269 272 273 274 272 271 270 269 266 262 261 263 266 267 266 264 263 262 262 266 273 277 274 270 274 281 281 275 272 271 272 276 274 268 269 271 270 264 260 259 260 262 264 265 267 273 280 280 275 269 266 268 272 273 271 268 265 262 264 268 268 266 262 257 257 259 260 261 261 261 261 262 263 263 265 266 268 269 269 270 272 273 274 273
271 273 274 273 271 270 270 268 265 263 263 264 265 267 269 271 270 267 264 263 265 269 273 272 271 277 283 283 276 269 268 272 278 277 272 270 268 265 263 260 262 265 267 269 270 271 274 276 274 270 266 263 264 267 268 268 269 269 266 265 265 266 266 262 256 254 256 257 258 258 259 260 262 263 263 264 265 267 269 269 270 272 274 274 274
270 271 271 271 269 268 267 266 265 262 260 261 265 270 274 275 274 271 267 264 264 267 269 269 273 279 281 280 275 269 270 277 282 278 272 268 262 259 262 266 267 268 269 270 272 274 275 271 266 263 263 263 263 264 265 267 267 267 267 267 264 263 264 263 258 256 256 256 256 256 258 259 260 262 263 264 263 262 262 262 265 271 275 275 275
266 266 267 267 267 266 264 265 265 263 260 260 263 269 274 277 276 273 268 263 262 264 265 267 273 279 279 278 276 274 274 280 284 280 273 270 264 262 267 270 268 267 269 270 272 272 272 271 269 265 262 262 263 265 267 268 266 263 264 266 266 264 263 262 260 259 258 257 257 257 260 262 263 264 264 264 263 260 259 260 265 271 274 273 273
264 263 263 263 264 264 264 264 263 262 261 260 260 262 265 271 277 274 263 256 257 261 263 267 273 276 277 277 278 278 278 280 282 281 277 272 267 266 268 269 267 267 269 270 270 269 268 270 272 270 267 264 263 265 267 268 268 267 265 265 267 267 266 264 263 262 262 262 262 262 265 268 269 269 270 269 267 265 264 265 268 271 272 272 270
265 262 262 262 264 266 267 267 265 263 262 262 262 261 260 263 271 270 258 255 259 261 263 268 272 275 277 277 278 278 278 279 280 280 279 274 269 266 265 265 265 267 269 270 270 269 269 269 270 270 270 270 268 268 268 268 269 269 268 268 272 273 271 269 267 266 266 267 267 267 269 270 270 270 270 270 270 269 267 267 268 269 270 270 270
267 265 264 263 264 267 270 271 270 268 267 266 265 266 265 265 266 265 260 260 262 263 265 268 271 273 275 276 277 277 277 277 277 277 276 275 271 268 264 262 263 265 268 269 270 269 269 269 269 271 272 274 273 272 271 271 270 270 270 271 274 274 272 271 270 268 268 268 268 269 270 270 270 269 269 269 269 269 269 269 269 269 268 269 269
268 268 268 268 268 271 272 272 271 270 269 267 266 266 267 268 267 266 265 265 266 266 267 268 270 272 273 274 275 275 274 275 275 274 273 271 269 267 264 261 260 262 264 265 266 266 266 267 270 272 273 274 273 272 271 271 270 269 270 271 271 271 271 271 270 269 268 267 267 268 268 269 269 269 269 269 269 269 269 270 270 270 270 270 270
268 270 271 272 274 277 277 275 273 270 268 267 266 265 265 265 265 265 265 266 267 267 268 269 270 271 272 272 272 271 271 272 272 270 268 266 265 264 262 260 259 259 261 262 263 264 265 267 269 271 272 272 272 271 270 269 269 269 271 273 275 275 273 272 271 270 269 268 267 267 267 267 268 268 269 269 269 269 270 270 270 270 271 271 272
271 272 273 274 276 278 278 276 273 271 270 270 269 267 265 263 262 262 262 262 263 264 265 266 268 269 270 270 269 268 268 268 267 265 266 267 266 265 264 263 263 264 266 267 267 267 267 268 269 269 269 269 269 269 268 268 269 270 272 275 277 277 275 273 271 271 270 269 268 266 266 266 266 266 267 268 269 270 271 271 271 272 272 272 272
271 272 272 272 270 269 270 271 271 271 270 269 268 267 265 262 261 260 260 260 262 263 264 263 264 266 268 270 269 268 268 268 267 267 269 269 268 268 268 268 268 270 271 271 271 271 271 270 270 270 269 268 269 269 269 269 270 271 273 275 277 278 278 275 273 272 272 270 269 267 266 265 265 265 266 267 268 269 270 271 271 271 271 271 271
268 269 269 268 266 264 264 266 266 265 263 262 263 263 263 262 260 257 256 258 260 262 263 263 265 268 269 269 268 267 268 269 269 270 270 270 269 270 270 271 272 272 273 273 273 272 272 272 272 271 270 270 271 271 272 273 273 274 274 275 276 277 277 276 276 275 273 272 270 268 267 266 265 265 266 266 266 267 268 268 269 269 270 270 271
265 265 265 265 264 262 260 259 259 259 259 260 261 262 263 261 257 251 250 255 258 259 261 264 267 269 268 266 267 266 264 265 265 265 266 266 267 268 269 270 270 271 271 272 272 272 272 271 271 271 272 272 273 274 276 276 277 276 276 276 276 276 276 276 276 275 274 273 272 270 269 267 267 266 266 266 266 266 267 267 268 269 270 270 270
260 260 261 260 261 260 259 259 260 260 260 260 260 261 263 262 258 253 254 258 260 259 257 259 263 264 263 263 265 263 261 262 263 263 263 263 262 263 264 266 266 267 268 269 269 268 268 267 268 269 271 273 275 276 277 278 278 278 277 277 278 277 277 277 276 275 275 274 274 273 271 270 269 268 268 268 268 269 269 269 270 270 270 271 271
258 259 259 260 261 261 261 261 261 261 260 261 261 262 262 261 259 257 257 259 260 258 255 252 251 250 251 253 256 256 254 255 257 259 261 262 262 261 262 264 265 266 267 267 267 266 264 263 265 268 273 277 278 278 278 277 277 278 278 278 279 278 278 277 277 276 275 275 274 273 272 271 270 270 270 270 271 271 271 272 272 272 272 273 273
258 259 259 260 260 261 262 262 262 262 261 260 259 258 258 258 259 259 258 258 259 258 257 254 249 247 247 248 248 249 248 247 248 251 254 258 261 263 264 265 266 267 267 267 268 267 265 264 266 271 277 281 280 278 277 277 277 277 277 278 278 278 278 278 278 277 276 275 275 274 273 272 272 272 272 272 272 272 273 273 274 274 275 275 275
258 259 260 260 260 260 261 261 261 260 259 257 255 255 255 256 257 259 259 259 260 260 260 258 254 251 250 250 250 250 251 250 251 252 253 255 258 262 264 266 268 269 268 268 269 269 268 269 271 275 280 281 280 278 277 277 277 276 276 276 276 277 277 277 277 277 276 275 274 274 273 273 273 273 273 273 273 273 274 275 275 276 276 276 277
257 258 258 259 259 259 259 260 259 258 258 258 257 257 257 256 256 257 258 259 260 261 261 260 258 255 255 255 255 255 257 258 258 258 257 257 259 261 264 266 268 270 270 269 269 270 271 272 274 277 279 279 278 277 276 276 276 276 276 277 277 277 276 276 275 275 274 274 274 273 272 272 272 272 272 272 273 274 275 275 276 276 277 277 278
257 257 256 256 257 259 260 261 261 261 260 260 259 259 259 259 259 259 259 259 260 260 260 260 260 259 259 259 259 260 262 263 264 263 262 261 262 263 265 267 268 269 270 270 270 271 272 273 274 275 276 276 276 275 274 274 274 275 275 276 276 276 275 275 274 273 273 273 272 272 271 271 271 271 272 272 273 274 274 275 276 277 277 278 279
258 258 259 259 259 260 261 262 262 262 262 262 261 261 261 261 261 261 261 261 261 262 262 261 261 260 260 261 262 263 265 266 266 266 266 265 266 266 267 268 269 270 270 271 271 271 272 272 273 274 275 275 275 274 274 273 273 273 274 274 274 274 273 273 273 273 272 271 271 270 270 270 271 271 272 272 273 274 275 276 276 277 278 278 279
261 262 263 263 263 263 263 263 262 262 262 262 263 263 263 263 263 263 263 263 263 262 262 261 261 261 261 261 261 262 263 264 265 266 266 266 267 268 269 270 270 271 271 272 272 272 273 273 273 273 274 274 274 274 274 274 274 274 273 273 273 273 273 273 273 272 272 271 270 269 269 269 270 270 271 271 272 274 275 275 276 276 276 277 278
263 264 264 265 265 265 264 264 263 262 262 263 263 264 264 264 263 263 263 263 264 264 264 263 263 263 263 263 263 262 262 262 263 263 264 265 265 266 267 268 269 270 271 272 272 273 273 273 273 273 273 273 273 273 273 273 273 272 272 272 272 272 272 272 271 271 270 270 269 269 269 269 269 270 270 271 273 273 274 274 274 275 275 276 277
264 264 264 263 263 263 263 262 262 262 262 262 263 264 264 264 264 263 263 263 263 264 265 265 265 265 265 264 264 263 263 262 262 262 263 264 264 265 265 266 267 268 269 270 271 272 272 272 272 272 272 272 272 272 272 271 271 271 271 271 271 271 271 270 269 268 268 268 268 268 268 269 269 270 271 272 272 272 272 272 273 274 276 276 277
268 268 267 266 265 264 263 262 262 262 262 262 262 263 263 264 264 264 264 264 264 264 264 265 265 266 266 266 265 265 264 264 263 263 263 263 264 264 264 265 266 267 268 269 269 270 270 270 271 271 271 271 271 270 270 270 270 269 269 270 270 269 269 269 268 267 266 266 266 267 267 267 268 269 270 270 270 270 270 271 272 274 275 276 277
269 269 269 268 268 268 267 266 265 265 264 263 263 263 264 264 264 265 265 266 266 265 265 265 265 265 265 266 266 266 266 266 265 265 264 264 263 263 264 264 265 266 266 267 267 267 268 268 269 270 270 270 269 269 268 268 268 268 267 267 267 267 267 267 267 267 267 267 266 266 266 267 268 268 268 268 268 268 269 270 272 273 274 275 277
268 267 266 266 266 266 266 266 266 266 266 266 265 265 265 265 265 265 265 265 266 266 266 265 265 265 265 265 265 265 266 265 265 265 265 265 265 264 264 264 264 263 263 263 264 265 266 267 267 268 268 268 267 267 267 266 265 265 265 265 265 265 265 266 266 266 267 267 267 267 267 267 268 268 267 267 267 267 268 269 271 272 274 275 277
Height
5766 5766 5765 5764 5765 5766 5766 5767 5768 5768 5769 5769 5768 5769 5771 5771 5773 5774 5775 5776 5777 5776 5776 5776 5777 5778 5778 5778 5778 5778 5779 5779 5779 5779 5778 5778 5778 5778 5778 5778 5778 5778 5778 5779 5779 5780 5780 5781 5781 5781 5781 5781 5781 5780 5780 5781 5782 5782 5783 5783 5784 5784 5785 5785 5784 5785 5786 5787 5787 5788 5789 5790 5791 5791 5791 5792 5792 5792 5793 5793 5793 5794 5794 5795 5795
5764 5764 5763 5763 5764 5764 5765 5766 5767 5767 5767 5768 5768 5769 5770 5770 5772 5774 5774 5775 5775 5774 5774 5774 5775 5776 5777 5777 5777 5777 5777 5778 5778 5778 5778 5777 5777 5777 5777 5776 5776 5776 5776 5777 5777 5778 5778 5778 5779 5779 5779 5779 5779 5779 5779 5779 5780 5781 5781 5782 5782 5783 5783 5783 5783 5783 5785 5785 5785 5786 5787 5788 5789 5789 5789 5790 5790 5790 5791 5791 5791 5791 5792 5792 5793
5762 5763 5762 5762 5762 5762 5763 5764 5765 5766 5766 5767 5768 5769 5770 5770 5771 5772 5773 5773 5773 5772 5772 5773 5774 5775 5775 5775 5775 5775 5775 5776 5777 5777 5777 5776 5776 5776 5776 5775 5774 5774 5774 5774 5775 5775 5775 5776 5776 5776 5777 5777 5777 5777 5777 5778 5778 5779 5779 5780 5780 5781 5781 5781 5781 5781 5781 5783 5783 5782 5784 5786 5786 5787 5787 5787 5788 5788 5789 5789 5789 5789 5789 5790 5790
5761 5761 5762 5761 5762 5761 5761 5762 5764 5764 5765 5766 5767 5768 5768 5768 5769 5770 5771 5771 5770 5770 5771 5772 5773 5774 5774 5774 5774 5774 5774 5774 5775 5775 5776 5775 5775 5775 5774 5774 5773 5773 5773 5772 5773 5773 5773 5774 5774 5774 5775 5775 5775 5775 5776 5776 5776 5777 5777 5778 5778 5779 5779 5779 5779 5778 5778 5779 5780 5780 5781 5782 5784 5784 5785 5785 5786 5786 5786 5787 5787 5787 5787 5787 5787
5760 5760 5761 5761 5761 5761 5761 5761 5762 5762 5763 5764 5765 5766 5766 5766 5767 5768 5769 5768 5768 5769 5769 5770 5771 5772 5772 5772 5772 5772 5773 5773 5773 5773 5774 5773 5773 5772 5772 5772 5772 5772 5771 5771 5772 5772 5772 5772 5773 5773 5773 5773 5773 5774 5774 5774 5775 5775 5775 5776 5776 5777 5777 5777 5778 5777 5776 5776 5777 5778 5779 5780 5781 5782 5782 5783 5784 5784 5784 5784 5784 5784 5785 5785 5785
5759 5759 5760 5760 5760 5760 5760 5760 5760 5761 5761 5762 5762 5763 5764 5765 5766 5767 5766 5766 5766 5767 5768 5769 5769 5770 5770 5770 5770 5771 5771 5771 5771 5771 5771 5771 5771 5771 5770 5770 5770 5770 5770 5770 5770 5771 5771 5771 5771 5772 5772 5772 5772 5772 5772 5773 5773 5773 5773 5774 5774 5775 5775 5775 5775 5775 5775 5775 5775 5775 5776 5777 5778 5779 5780 5780 5781 5781 5782 5782 5782 5782 5782 5783 5783
5757 5758 5759 5759 5759 5759 5759 5759 5758 5758 5758 5759 5760 5761 5762 5763 5764 5765 5765 5764 5764 5765 5766 5767 5767 5768 5768 5768 5769 5769 5770 5769 5769 5769 5769 5770 5770 5770 5770 5769 5769 5769 5769 5769 5769 5769 5769 5770 5770 5770 5770 5770 5770 5770 5771 5771 5771 5771 5771 5772 5772 5773 5773 5773 5774 5774 5774 5774 5774 5774 5774 5775 5776 5777 5778 5778 5779 5779 5779 5780 5780 5780 5780 5780 5781
5755 5757 5757 5757 5757 5757 5757 5757 5757 5757 5757 5757 5758 5759 5760 5761 5762 5763 5763 5763 5762 5763 5764 5765 5766 5766 5766 5767 5767 5768 5768 5768 5767 5767 5768 5768 5768 5769 5769 5768 5768 5768 5767 5768 5768 5768 5768 5768 5768 5768 5768 5768 5769 5769 5769 5769 5769 5769 5769 5770 5770 5771 5771 5771 5771 5772 5772 5772 5772 5772 5772 5773 5774 5775 5776 5776 5776 5776 5777 5777 5777 5777 5778 5778 5778
5754 5755 5756 5755 5755 5755 5755 5755 5755 5756 5756 5756 5756 5757 5758 5759 5760 5761 5761 5760 5759 5760 5761 5763 5764 5764 5764 5765 5765 5766 5766 5766 5766 5766 5766 5766 5766 5766 5767 5767 5767 5767 5766 5766 5766 5766 5766 5766 5766 5766 5766 5767 5767 5767 5766 5766 5766 5767 5767 5768 5768 5768 5769 5769 5769 5770 5770 5770 5769 5770 5770 5771 5771 5772 5773 5773 5772 5772 5773 5774 5774 5775 5775 5775 5776
5752 5753 5754 5753 5753 5753 5753 5753 5753 5754 5754 5753 5753 5754 5755 5756 5756 5757 5757 5756 5756 5757 5759 5760 5761 5762 5762 5762 5763 5763 5764 5764 5764 5764 5763 5763 5763 5763 5764 5764 5765 5765 5765 5765 5765 5764 5764 5764 5764 5764 5764 5764 5764 5764 5764 5764 5764 5764 5765 5765 5765 5766 5766 5766 5767 5767 5767 5767 5767 5768 5768 5768 5769 5769 5770 5770 5769 5769 5770 5771 5771 5771 5772 5772 5773
5749 5751 5752 5751 5751 5751 5751 5751 5750 5749 5749 5749 5749 5750 5751 5752 5752 5752 5753 5753 5754 5755 5756 5758 5758 5758 5759 5760 5760 5761 5761 5761 5761 5761 5761 5760 5760 5760 5761 5761 5762 5763 5763 5763 5763 5762 5762 5762 5762 5762 5762 5762 5762 5762 5762 5762 5762 5762 5762 5762 5763 5763 5763 5764 5764 5764 5765 5765 5765 5765 5766 5766 5766 5767 5767 5767 5767 5767 5768 5768 5768 5769 5769 5770 5770
5746 5748 5749 5748 5748 5748 5749 5747 5746 5745 5745 5746 5747 5747 5748 5748 5748 5749 5750 5751 5752 5753 5754 5755 5755 5755 5756 5757 5758 5759 5759 5759 5759 5758 5758 5757 5757 5757 5758 5758 5760 5761 5761 5761 5761 5760 5760 5760 5760 5760 5760 5760 5760 5760 5760 5760 5760 5760 5760 5760 5760 5760 5760 5761 5761 5761 5762 5762 5762 5763 5763 5764 5764 5764 5764 5764 5765 5765 5765 5765 5766 5766 5766 5767 5767
5743 5745 5744 5743 5743 5743 5743 5742 5742 5744 5745 5745 5745 5745 5745 5744 5745 5747 5748 5748 5749 5750 5751 5752 5752 5753 5754 5755 5756 5757 5757 5757 5756 5756 5755 5755 5755 5755 5755 5756 5757 5758 5759 5759 5758 5758 5758 5758 5758 5758 5758 5758 5758 5757 5757 5757 5757 5758 5758 5758 5758 5758 5758 5758 5758 5759 5759 5759 5760 5760 5761 5761 5761 5762 5762 5762 5762 5762 5762 5762 5763 5763 5763 5764 5765
5740 5740 5739 5738 5739 5740 5740 5741 5742 5743 5742 5743 5743 5743 5743 5743 5744 5744 5744 5744 5746 5748 5750 5750 5751 5751 5752 5753 5753 5754 5754 5755 5754 5754 5754 5754 5753 5753 5753 5753 5753 5755 5756 5756 5756 5756 5756 5756 5756 5756 5756 5756 5755 5755 5755 5755 5755 5755 5756 5756 5756 5756 5756 5756 5756 5756 5757 5757 5758 5758 5758 5759 5759 5759 5759 5759 5760 5760 5760 5760 5760 5761 5761 5761 5762
5736 5736 5736 5737 5738 5739 5739 5740 5740 5738 5738 5740 5740 5740 5741 5741 5740 5740 5741 5742 5745 5747 5748 5748 5749 5749 5749 5750 5750 5750 5751 5752 5752 5752 5752 5752 5751 5751 5751 5751 5751 5752 5753 5753 5754 5754 5753 5753 5754 5754 5754 5753 5753 5753 5752 5752 5753 5753 5754 5754 5754 5754 5755 5755 5754 5754 5755 5755 5755 5756 5756 5757 5757 5757 5758 5758 5758 5758 5758 5758 5758 5758 5758 5759 5759
5734 5734 5734 5735 5736 5736 5736 5736 5737 5735 5735 5736 5737 5737 5738 5737 5737 5739 5741 5743 5744 5745 5745 5746 5746 5747 5747 5747 5747 5748 5748 5748 5748 5749 5750 5750 5749 5749 5749 5748 5749 5749 5750 5751 5752 5751 5751 5751 5751 5752 5752 5751 5751 5751 5750 5750 5751 5751 5752 5752 5752 5753 5753 5753 5753 5753 5753 5753 5754 5754 5754 5755 5755 5756 5756 5756 5756 5756 5756 5756 5756 5756 5756 5756 5757
5731 5731 5731 5731 5731 5732 5732 5732 5732 5731 5731 5733 5734 5735 5736 5735 5736 5739 5740 5741 5741 5741 5742 5743 5744 5744 5745 5745 5745 5745 5745 5745 5745 5746 5747 5747 5747 5746 5746 5746 5747 5747 5748 5749 5749 5749 5750 5750 5750 5750 5750 5750 5749 5749 5749 5749 5749 5750 5750 5750 5751 5751 5751 5752 5752 5752 5752 5752 5752 5752 5753 5753 5753 5754 5754 5754 5754 5754 5754 5754 5754 5754 5754 5754 5754
5727 5727 5728 5727 5727 5729 5729 5728 5729 5729 5730 5731 5733 5734 5734 5734 5734 5735 5736 5737 5737 5737 5738 5740 5741 5742 5742 5743 5743 5743 5743 5743 5743 5743 5744 5744 5744 5744 5744 5745 5745 5745 5746 5746 5747 5747 5748 5748 5748 5748 5748 5748 5748 5747 5747 5748 5748 5748 5749 5749 5749 5749 5749 5750 5750 5751 5751 5751 5751 5751 5751 5751 5751 5752 5752 5753 5753 5753 5753 5753 5752 5752 5752 5752 5752
5723 5724 5725 5724 5723 5726 5727 5726 5726 5727 5728 5729 5732 5733 5733 5733 5732 5730 5731 5733 5733 5734 5736 5737 5738 5739 5739 5740 5741 5741 5741 5740 5740 5741 5741 5742 5742 5742 5742 5742 5742 5743 5743 5744 5744 5745 5746 5746 5746 5746 5746 5746 5746 5746 5746 5746 5746 5747 5747 5748 5748 5748 5748 5748 5749 5749 5749 5750 5750 5749 5749 5749 5749 5750 5750 5751 5751 5751 5751 5751 5751 5751 5750 5750 5750
5720 5721 5721 5720 5721 5723 5724 5724 5724 5724 5726 5727 5729 5730 5730 5731 5730 5727 5727 5729 5731 5732 5734 5735 5736 5737 5737 5738 5738 5739 5739 5739 5739 5739 5740 5740 5740 5740 5740 5740 5740 5740 5741 5741 5742 5742 5743 5744 5744 5744 5744 5744 5744 5744 5745 5745 5745 5745 5746 5746 5746 5747 5747 5747 5747 5747 5747 5748 5748 5748 5748 5748 5748 5748 5748 5748 5749 5749 5749 5749 5749 5749 5749 5749 5749
5719 5719 5719 5718 5720 5720 5721 5721 5722 5722 5723 5724 5725 5726 5727 5728 5728 5726 5725 5726 5728 5731 5732 5733 5734 5734 5735 5735 5735 5735 5735 5736 5736 5737 5737 5738 5737 5737 5737 5737 5737 5738 5739 5740 5740 5741 5741 5741 5741 5742 5742 5742 5742 5743 5743 5743 5744 5744 5744 5745 5745 5745 5745 5745 5745 5745 5745 5745 5746 5746 5746 5746 5746 5746 5746 5746 5746 5747 5747 5747 5747 5748 5747 5747 5747
5716 5717 5716 5716 5717 5718 5718 5719 5720 5720 5721 5721 5722 5723 5724 5724 5724 5724 5723 5723 5726 5728 5730 5731 5731 5731 5732 5732 5732 5732 5732 5732 5733 5733 5734 5735 5735 5734 5734 5734 5734 5735 5736 5737 5738 5739 5739 5739 5739 5739 5740 5740 5741 5741 5742 5742 5742 5742 5742 5743 5743 5743 5743 5743 5743 5743 5743 5743 5743 5743 5744 5744 5744 5744 5744 5744 5744 5744 5745 5745 5745 5746 5746 5746 5746
5713 5713 5714 5714 5714 5715 5715 5716 5717 5718 5718 5719 5719 5720 5721 5722 5721 5721 5721 5722 5724 5726 5727 5728 5728 5729 5729 5729 5730 5730 5730 5730 5730 5730 5731 5732 5732 5731 5731 5731 5732 5733 5734 5735 5736 5736 5736 5736 5736 5737 5737 5738 5739 5739 5740 5740 5740 5741 5741 5741 5740 5740 5741 5741 5741 5741 5740 5740 5741 5741 5741 5741 5741 5742 5742 5742 5742 5742 5742 5742 5743 5743 5743 5744 5744
5710 5710 5711 5711 5712 5712 5712 5713 5714 5715 5716 5717 5717 5717 5718 5718 5719 5719 5719 5720 5721 5722 5723 5724 5725 5725 5726 5726 5726 5727 5727 5727 5727 5727 5728 5728 5729 5728 5728 5729 5729 5730 5731 5732 5732 5733 5733 5733 5733 5734 5734 5735 5736 5736 5737 5737 5737 5738 5738 5738 5738 5738 5738 5738 5738 5738 5738 5738 5738 5738 5738 5739 5739 5739 5739 5739 5740 5740 5740 5740 5740 5740 5740 5741 5740
5707 5708 5708 5708 5709 5709 5710 5711 5712 5712 5713 5714 5714 5714 5714 5715 5716 5716 5717 5717 5718 5719 5719 5720 5721 5722 5723 5723 5723 5724 5724 5724 5724 5724 5725 5725 5726 5726 5726 5726 5726 5727 5727 5728 5728 5729 5729 5730 5730 5731 5731 5732 5733 5733 5733 5734 5734 5735 5735 5735 5735 5735 5736 5736 5736 5736 5736 5735 5735 5735 5735 5736 5736 5736 5736 5736 5737 5737 5737 5737 5737 5738 5738 5738 5738
5704 5705 5705 5706 5706 5707 5707 5708 5709 5710 5710 5711 5711 5711 5711 5712 5712 5713 5713 5713 5714 5715 5715 5717 5718 5719 5719 5720 5721 5721 5721 5721 5721 5722 5722 5722 5723 5723 5723 5723 5723 5724 5724 5725 5726 5726 5727 5727 5727 5728 5728 5729 5730 5730 5730 5730 5731 5731 5731 5732 5733 5733 5733 5733 5733 5733 5733 5733 5733 5732 5732 5732 5732 5733 5733 5733 5733 5733 5734 5734 5734 5735 5735 5735 5735
5701 5702 5702 5703 5703 5704 5704 5705 5706 5707 5708 5708 5708 5708 5708 5709 5709 5709 5709 5709 5710 5711 5712 5713 5715 5715 5716 5717 5718 5718 5718 5719 5719 5719 5719 5720 5720 5720 5720 5720 5720 5721 5722 5722 5723 5723 5724 5725 5725 5725 5726 5726 5727 5727 5727 5727 5727 5728 5728 5729 5730 5730 5730 5729 5729 5729 5730 5730 5730 5730 5729 5729 5729 5729 5730 5730 5730 5730 5730 5731 5731 5731 5732 5732 5732
5698 5699 5699 5699 5700 5700 5701 5702 5703 5704 5704 5705 5705 5705 5705 5705 5705 5705 5705 5705 5706 5707 5709 5710 5711 5712 5713 5714 5714 5714 5715 5715 5716 5716 5716 5717 5717 5716 5717 5717 5717 5718 5719 5719 5719 5720 5721 5721 5722 5722 5723 5723 5723 5723 5724 5724 5724 5725 5725 5725 5726 5726 5726 5726 5726 5726 5726 5726 5726 5726 5726 5726 5726 5726 5726 5727 5727 5727 5727 5727 5728 5728 5728 5728 5728
5695 5695 5696 5696 5696 5697 5697 5698 5698 5699 5700 5701 5701 5702 5701 5701 5702 5701 5702 5702 5703 5703 5704 5705 5707 5708 5709 5710 5711 5711 5711 5712 5712 5712 5713 5713 5713 5713 5713 5714 5714 5715 5716 5716 5717 5717 5717 5718 5718 5719 5719 5720 5720 5719 5720 5720 5721 5721 5721 5721 5721 5722 5722 5722 5722 5722 5722 5722 5722 5722 5722 5723 5723 5723 5723 5723 5724 5724 5724 5724 5724 5724 5724 5724 5725
5691 5691 5692 5692 5692 5692 5693 5693 5694 5695 5695 5696 5697 5697 5697 5698 5698 5698 5698 5698 5698 5699 5700 5700 5702 5703 5704 5705 5706 5706 5707 5707 5708 5709 5709 5710 5710 5709 5710 5710 5710 5711 5712 5713 5714 5714 5714 5714 5714 5715 5715 5715 5715 5715 5715 5716 5716 5717 5717 5717 5717 5718 5718 5718 5718 5718 5717 5717 5718 5718 5718 5719 5719 5719 5719 5720 5720 5720 5720 5720 5720 5720 5720 5720 5720
5686 5686 5687 5688 5688 5688 5688 5689 5690 5690 5691 5691 5692 5693 5693 5694 5694 5694 5694 5694 5694 5694 5695 5696 5697 5698 5698 5700 5700 5701 5702 5703 5703 5704 5704 5705 5705 5705 5706 5706 5707 5707 5708 5709 5709 5710 5710 5710 5710 5710 5710 5710 5711 5711 5711 5711 5712 5713 5713 5712 5712 5713 5713 5713 5713 5713 5713 5713 5713 5713 5713 5714 5715 5715 5715 5715 5715 5715 5715 5715 5715 5715 5714 5714 5715
5680 5681 5682 5683 5683 5684 5684 5684 5685 5686 5686 5687 5687 5688 5688 5689 5689 5690 5690 5690 5690 5690 5690 5691 5692 5692 5693 5694 5694 5695 5696 5697 5698 5699 5699 5699 5699 5700 5700 5701 5702 5702 5703 5704 5704 5705 5705 5705 5705 5705 5705 5705 5705 5706 5706 5706 5707 5708 5708 5708 5707 5707 5707 5708 5708 5708 5708 5708 5708 5708 5708 5708 5709 5709 5709 5709 5709 5709 5709 5709 5709 5709 5708 5708 5709
5674 5675 5676 5677 5678 5678 5679 5679 5680 5680 5681 5682 5682 5683 5683 5683 5683 5684 5684 5684 5685 5685 5685 5686 5686 5687 5688 5689 5689 5689 5690 5691 5692 5693 5693 5694 5694 5695 5695 5696 5697 5697 5698 5699 5699 5700 5700 5700 5700 5700 5700 5700 5700 5700 5700 5701 5702 5703 5703 5703 5703 5703 5702 5702 5702 5703 5703 5703 5703 5703 5703 5703 5703 5702 5702 5702 5702 5702 5702 5701 5701 5701 5701 5701 5702
5668 5669 5670 5671 5671 5673 5673 5674 5674 5675 5675 5676 5676 5677 5677 5678 5678 5678 5679 5679 5680 5680 5680 5680 5681 5682 5682 5683 5684 5684 5685 5685 5686 5687 5688 5689 5689 5690 5690 5691 5691 5692 5692 5693 5694 5694 5694 5694 5694 5694 5694 5694 5695 5695 5695 5696 5696 5697 5697 5697 5697 5697 5697 5697 5697 5697 5697 5698 5698 5698 5697 5697 5697 5696 5696 5695 5695 5695 5695 5695 5694 5694 5694 5694 5694
5662 5663 5664 5665 5666 5667 5667 5667 5667 5668 5669 5670 5670 5671 5672 5672 5673 5673 5673 5673 5674 5674 5675 5675 5675 5675 5676 5677 5678 5678 5679 5680 5680 5681 5682 5682 5683 5683 5684 5684 5684 5684 5685 5685 5686 5687 5687 5688 5688 5689 5689 5689 5689 5690 5690 5691 5691 5691 5691 5692 5692 5692 5692 5692 5692 5692 5691 5692 5692 5692 5691 5691 5691 5690 5690 5689 5689 5688 5688 5688 5687 5687 5687 5687 5687
5657 5657 5658 5660 5662 5662 5661 5661 5662 5663 5664 5664 5664 5665 5665 5666 5667 5667 5666 5667 5667 5668 5668 5668 5669 5669 5670 5670 5671 5671 5671 5672 5673 5673 5674 5674 5675 5675 5676 5676 5676 5676 5677 5677 5678 5679 5680 5681 5682 5682 5683 5683 5683 5683 5684 5684 5685 5686 5686 5686 5686 5686 5686 5686 5686 5686 5685 5685 5685 5685 5685 5685 5684 5684 5683 5683 5683 5682 5682 5681 5681 5681 5680 5680 5680
5651 5651 5652 5653 5655 5656 5656 5655 5656 5657 5657 5657 5657 5658 5658 5659 5660 5660 5661 5661 5662 5662 5662 5662 5663 5664 5663 5663 5663 5663 5664 5664 5665 5666 5666 5667 5667 5668 5668 5669 5669 5670 5670 5670 5671 5672 5673 5674 5674 5675 5675 5676 5676 5676 5677 5678 5678 5679 5680 5680 5680 5679 5679 5679 5679 5679 5679 5679 5679 5679 5678 5678 5678 5677 5677 5677 5677 5676 5676 5675 5674 5674 5674 5673 5673
5644 5645 5645 5646 5647 5648 5649 5649 5650 5651 5650 5651 5651 5652 5652 5653 5654 5655 5655 5656 5656 5657 5657 5658 5659 5659 5658 5658 5658 5658 5658 5659 5659 5660 5660 5661 5662 5662 5663 5663 5663 5664 5664 5664 5665 5665 5666 5667 5667 5668 5668 5669 5669 5670 5670 5671 5671 5672 5672 5673 5673 5673 5673 5672 5672 5672 5672 5672 5672 5672 5672 5671 5671 5671 5670 5670 5670 5669 5669 5668 5668 5667 5667 5667 5666
5638 5638 5638 5638 5639 5639 5640 5641 5643 5644 5644 5644 5645 5646 5646 5647 5648 5648 5648 5649 5649 5651 5653 5654 5654 5654 5653 5653 5652 5652 5652 5653 5654 5654 5655 5656 5657 5657 5658 5658 5658 5658 5658 5659 5659 5659 5660 5660 5661 5662 5662 5663 5663 5663 5664 5664 5664 5665 5665 5665 5665 5665 5665 5665 5665 5665 5665 5665 5665 5665 5665 5665 5664 5664 5663 5663 5663 5662 5662 5662 5661 5661 5660 5660 5659
5630 5630 5630 5630 5631 5631 5632 5633 5635 5636 5636 5637 5638 5638 5639 5639 5639 5639 5640 5640 5641 5643 5646 5647 5647 5647 5647 5647 5646 5646 5646 5647 5648 5648 5648 5649 5650 5651 5651 5652 5652 5652 5653 5653 5653 5654 5654 5655 5655 5656 5657 5657 5657 5658 5658 5658 5658 5658 5658 5658 5658 5658 5658 5658 5658 5658 5658 5658 5658 5658 5657 5657 5657 5657 5657 5656 5656 5656 5655 5655 5655 5654 5653 5653 5652
5622 5622 5622 5623 5623 5623 5624 5625 5626 5627 5628 5629 5630 5630 5630 5629 5630 5631 5632 5632 5633 5635 5637 5639 5640 5640 5640 5640 5640 5640 5640 5640 5641 5641 5641 5642 5642 5643 5644 5644 5645 5646 5646 5647 5647 5648 5648 5649 5649 5650 5650 5651 5651 5651 5651 5651 5651 5651 5651 5651 5651 5651 5651 5651 5650 5650 5651 5651 5651 5650 5650 5650 5650 5650 5650 5650 5650 5649 5649 5648 5648 5648 5647 5647 5646
5614 5615 5615 5615 5615 5615 5616 5617 5618 5618 5619 5620 5621 5622 5622 5622 5623 5624 5624 5624 5625 5627 5628 5630 5631 5632 5632 5633 5633 5633 5633 5634 5634 5635 5635 5635 5636 5636 5637 5637 5638 5639 5639 5640 5640 5641 5642 5642 5642 5643 5643 5644 5644 5644 5644 5644 5644 5644 5644 5644 5644 5644 5644 5644 5644 5643 5643 5643 5643 5643 5643 5643 5644 5644 5644 5644 5643 5643 5643 5642 5642 5642 5641 5640 5640
5607 5608 5608 5608 5608 5608 5608 5608 5609 5610 5610 5611 5612 5613 5614 5615 5616 5616 5617 5617 5618 5619 5619 5620 5622 5623 5624 5624 5625 5625 5625 5626 5627 5628 5629 5629 5629 5629 5630 5630 5631 5631 5632 5632 5633 5634 5634 5635 5635 5636 5636 5637 5637 5637 5637 5637 5637 5637 5637 5637 5637 5637 5638 5638 5637 5637 5637 5637 5637 5637 5637 5637 5637 5637 5637 5637 5637 5637 5637 5636 5636 5635 5635 5634 5633
5601 5601 5601 5601 5601 5601 5601 5601 5601 5601 5602 5603 5604 5605 5606 5607 5608 5608 5609 5610 5610 5611 5612 5612 5613 5614 5615 5615 5616 5616 5616 5617 5618 5619 5621 5621 5621 5621 5622 5622 5623 5623 5624 5625 5625 5626 5627 5628 5628 5629 5630 5630 5630 5630 5630 5630 5630 5630 5630 5630 5630 5630 5631 5631 5631 5631 5631 5631 5631 5631 5631 5631 5631 5631 5631 5631 5631 5631 5631 5630 5630 5629 5629 5628 5627
5594 5594 5594 5594 5595 5595 5595 5595 5595 5594 5594 5595 5596 5597 5598 5599 5599 5600 5600 5601 5602 5603 5604 5605 5606 5607 5607 5607 5608 5608 5608 5608 5609 5610 5611 5612 5612 5613 5613 5614 5615 5615 5616 5617 5618 5619 5620 5620 5621 5622 5622 5623 5623 5623 5623 5623 5623 5624 5624 5624 5624 5624 5624 5624 5624 5624 5625 5625 5625 5625 5625 5625 5625 5625 5625 5625 5625 5625 5625 5624 5624 5623 5623 5622 5621
5586 5586 5586 5586 5587 5587 5588 5589 5589 5588 5587 5587 5588 5588 5589 5590 5590 5591 5591 5592 5593 5595 5596 5597 5598 5598 5599 5600 5601 5601 5601 5601 5601 5602 5603 5604 5604 5604 5605 5605 5606 5607 5607 5608 5610 5611 5612 5613 5614 5614 5615 5616 5616 5615 5616 5616 5616 5617 5617 5617 5617 5617 5617 5617 5617 5618 5618 5618 5618 5618 5618 5619 5619 5619 5619 5619 5619 5619 5619 5618 5618 5617 5617 5616 5616
5578 5578 5578 5578 5578 5579 5579 5580 5581 5580 5580 5580 5580 5580 5581 5581 5581 5582 5582 5582 5583 5584 5586 5587 5588 5589 5590 5591 5592 5593 5594 5594 5594 5595 5595 5596 5597 5597 5598 5598 5598 5598 5599 5600 5601 5602 5603 5604 5606 5607 5608 5608 5608 5608 5609 5609 5609 5609 5609 5609 5610 5610 5610 5610 5610 5611 5611 5611 5611 5612 5612 5612 5612 5613 5613 5613 5613 5613 5613 5612 5612 5611 5611 5611 5610
5568 5568 5568 5568 5569 5569 5570 5570 5571 5571 5571 5571 5572 5571 5571 5571 5572 5572 5572 5573 5574 5575 5575 5576 5577 5578 5579 5581 5582 5583 5585 5586 5586 5587 5588 5588 5589 5590 5591 5591 5591 5591 5591 5592 5593 5594 5595 5596 5597 5599 5600 5601 5601 5602 5602 5602 5602 5602 5603 5603 5603 5603 5603 5604 5604 5604 5604 5605 5605 5605 5606 5606 5606 5607 5607 5607 5607 5607 5607 5607 5606 5606 5606 5605 5605
5558 5558 5558 5558 5558 5559 5559 5560 5561 5561 5561 5562 5562 5563 5562 5562 5562 5562 5561 5562 5564 5565 5566 5567 5567 5567 5568 5570 5571 5572 5574 5575 5576 5577 5579 5580 5581 5581 5582 5583 5583 5584 5584 5585 5586 5587 5587 5588 5589 5591 5592 5594 5594 5594 5594 5594 5595 5595 5596 5596 5596 5597 5597 5597 5597 5598 5598 5598 5599 5599 5600 5600 5601 5601 5601 5601 5601 5601 5601 5601 5601 5601 5601 5600 5600
5549 5549 5549 5548 5548 5548 5549 5550 5550 5550 5551 5552 5552 5553 5553 5552 5552 5552 5551 5552 5553 5554 5555 5557 5557 5558 5558 5559 5560 5562 5563 5564 5565 5567 5568 5570 5572 5573 5574 5575 5575 5576 5577 5577 5578 5579 5580 5580 5582 5583 5584 5586 5587 5587 5587 5588 5588 5589 5589 5590 5590 5590 5590 5590 5591 5591 5592 5592 5593 5594 5594 5595 5595 5595 5595 5595 5596 5596 5596 5596 5596 5596 5596 5595 5595
5539 5539 5539 5539 5539 5539 5539 5540 5540 5540 5540 5541 5542 5542 5542 5542 5542 5542 5542 5543 5543 5543 5544 5546 5547 5548 5549 5550 5551 5552 5553 5554 5555 5557 5558 5560 5562 5563 5565 5567 5567 5568 5569 5569 5570 5571 5572 5573 5575 5576 5577 5578 5579 5580 5580 5581 5582 5582 5583 5583 5583 5583 5584 5584 5585 5585 5586 5587 5587 5588 5588 5589 5589 5589 5590 5590 5590 5591 5591 5591 5591 5591 5591 5591 5590